Location: Croagnes
(43.9363°N, 5.3265°E)
Time: 08:05:20
(UTC+00:00)

Cosmos 1271 Rocket - Pass Details

Date: 06 June 2020
Orbit: 498 x 546 km, 81.2° (Epoch: 12 July)

Event Time Altitude Azimuth Distance (km) Brightness Sun altitude
Exits shadow 21:42:31 31° 204° (SSW) 954 3.7 -18.3°
Maximum altitude 21:44:17 70° 280° (W) 570 2.9 -18.4°
Drops below altitude 10° 21:48:15 10° 6° (N) 1,806 6.3 -18.7°
Sets 21:50:27 0° 9° (N) 2,709 7.3 -18.9°
